This is the latest recevied weather packets stored in our database for station/object DH4SBM. If no packets are shown the sender has not sent any weather packets the latest 1 day(s).
| Time | Temp. | Humidity | Pressure | Rain* | Wind** | Luminosity | Snow |
|---|---|---|---|---|---|---|---|
| 1836274832 | 13.33° C | 89% | 1021.9 hPa | 0 mm | 0 m/s | 0 W/m² | - |
| 1836274232 | 13.33° C | 88% | 1021.8 hPa | 0 mm | 0 m/s | 0 W/m² | - |
| 1778031341 | 11.11° C | 91% | 1008.6 hPa | 0 mm | 1.34 m/s, 202° | 0 W/m² | - |
| 1778030741 | 11.11° C | 91% | 1008.7 hPa | 0 mm | 0.89 m/s, 180° | 0 W/m² | - |
| 1778030141 | 11.11° C | 91% | 1008.6 hPa | 0 mm | 1.34 m/s, 180° | 0 W/m² | - |
| 1778029541 | 11.11° C | 91% | 1008.7 hPa | 0 mm | 1.34 m/s, 180° | 0 W/m² | - |
| 1778028941 | 11.11° C | 91% | 1008.7 hPa | 0 mm | 0.89 m/s, 180° | 0 W/m² | - |
| 1778028341 | 11.11° C | 91% | 1008.7 hPa | 0 mm | 0.89 m/s, 180° | 0 W/m² | - |
| 1778027743 | 11.11° C | 91% | 1008.8 hPa | 0 mm | 0.89 m/s, 158° | 0 W/m² | - |
| 1778027143 | 11.11° C | 91% | 1008.9 hPa | 0 mm | 0.45 m/s, 158° | 0 W/m² | - |
| 1778026544 | 11.11° C | 91% | 1009 hPa | 0 mm | 0.45 m/s, 180° | 0 W/m² | - |
| 1778025943 | 11.67° C | 91% | 1009.2 hPa | 0 mm | 0.45 m/s, 180° | 0 W/m² | - |
| 1778025343 | 11.67° C | 91% | 1009.2 hPa | 0 mm | 0.89 m/s, 180° | 0 W/m² | - |
| 1778024743 | 11.67° C | 91% | 1009.3 hPa | 0 mm | 0.89 m/s, 180° | 0 W/m² | - |
| 1778024143 | 11.67° C | 91% | 1009.4 hPa | 0 mm | 0.89 m/s, 180° | 0 W/m² | - |
| 1778023543 | 11.67° C | 92% | 1009.3 hPa | 0 mm | 0.89 m/s, 180° | 0 W/m² | - |
| 1778022943 | 11.67° C | 92% | 1009.3 hPa | 0 mm | 0.89 m/s, 202° | 0 W/m² | - |
| 1778022343 | 11.67° C | 92% | 1009.3 hPa | 0 mm | 1.34 m/s, 202° | 0 W/m² | - |
| 1778021744 | 11.67° C | 92% | 1009.4 hPa | 0 mm | 1.79 m/s, 180° | 0 W/m² | - |
| 1778021144 | 11.67° C | 92% | 1009.4 hPa | 0 mm | 1.34 m/s, 180° | 0 W/m² | - |
| 1778020544 | 11.67° C | 92% | 1009.5 hPa | 0 mm | 1.34 m/s, 180° | 0 W/m² | - |
| 1778019944 | 12.22° C | 92% | 1009.4 hPa | 0 mm | 0.89 m/s, 158° | 0 W/m² | - |
| 1778019344 | 12.22° C | 92% | 1009.2 hPa | 0 mm | 0.45 m/s, 180° | 0 W/m² | - |
| 1778018744 | 12.22° C | 92% | 1009.3 hPa | 0 mm | 0.45 m/s, 180° | 0 W/m² | - |
| 1778018143 | 12.22° C | 92% | 1009.3 hPa | 0 mm | 0.89 m/s, 202° | 0 W/m² | - |
* Rain latest hour (hover to see other rain measurements)
** Current wind speed in m/s (hover to see current wind gust speed)